Location: Iesi
(43.5167°N, 13.2333°E)
Time: 01:46:32
(UTC+00:00)

NOSS 3-2 (A) - Pass Details

Date: 08 August 2020
Orbit: 795 x 1413 km, 63.4° (Epoch: 22 September)

Event Time Altitude Azimuth Distance (km) Brightness Sun altitude
Rises 21:24:30 0° 231° (SW) 3,351 6.2 -25.7°
Reaches altitude 10° 21:26:52 10° 236° (SW) 2,467 5.5 -25.9°
Maximum altitude 21:32:26 55° 313° (NW) 1,099 4.0 -26.4°
Drops below altitude 10° 21:38:50 10° 31° (NNE) 2,823 6.3 -26.9°
Sets 21:41:44 0° 36° (NE) 3,879 7.0 -27.1°
